Location: Newark
(51.5114°N, 0.0848°W)
Time: 13:04:31
(UTC+00:00)

ISS - Visible Passes

Search period start: 16 February 2019 00:00
Search period end: 26 February 2019 00:00
Orbit: 403 x 411 km, 51.6° (Epoch: 16 February)

Date Brightness Start Highest point End Pass type
(mag) Time Alt. Az. Time Alt. Az. Time Alt. Az.
22 Feb -0.6 06:25:22 10° SSE 06:26:32 11° SE 06:27:42 10° ESE visible
24 Feb -1.3 06:17:06 10° SSW 06:19:39 21° SE 06:22:14 10° E visible
25 Feb -1.0 05:26:32 10° S 05:28:20 14° SE 05:30:09 10° ESE visible
